Location: California Mobile Home Park
(33.7461°N, 117.9092°W)
Time: 19:27:36
(UTC+00:00)

OE (NEXTSAT) - Pass Details

Date: 29 June 2022
Orbit: 397 x 400 km, 46.0° (Epoch: 07 August)

Event Time Altitude Azimuth Distance (km) Brightness Sun altitude
Exits shadow 12:07:15 10° 237° (WSW) 1,451 6.3 -7.3°
Reaches altitude 10° 12:07:18 10° 237° (WSW) 1,430 6.2 -7.3°
Maximum altitude 12:10:31 84° 323° (NW) 401 4.1 -6.8°
Drops below altitude 10° 12:13:46 10° 54° (NE) 1,436 8.8 -6.2°
Sets 12:15:51 0° 55° (NE) 2,296 10.9 -5.9°
